Voltar ao catálogo

STARLINK-3877

AtivoComunicaçõesVLEO
NORAD 52355·PAYLOAD·🇺🇸 United States

Lançado Apr 29, 2022 de Cape Canaveral Space Force Station

Loading…

Próximas Passagens (próximas 24 horas)

TLE

AtualizadoSource: CelesTrak SupGP

Época: Sep 15, 2026, 02:32 UTC

1 52355C 22045AA  26258.10604167 -.00035130  00000+0 -10379-2 0  2584
2 52355  53.1596  61.0613 0001120  85.9989 164.4611 15.34408112    13

Acompanhe STARLINK-3877 em tempo real com AllMySat

Download on the App Store